{"data":{"norad_id":63493,"intl_designator":"2025-071A","name":"STARLINK-33828","alt_names":[],"object_type":"PAYLOAD","status":"ACTIVE","operator":null,"country":"US","launch_date":"2025-04-07","launch_site_code":"AFWTR","launch_vehicle":null,"mission":null,"orbit_class":"UNKNOWN","rcs_meters":null,"size_class":null,"mass_kg":null,"dimensions":null,"purposes":["comms"],"wikipedia_slug":null,"has_3d_model":false,"image_url":null,"decayed_at":null,"tle_current":{"epoch":"2026-09-20T09:56:01.505184Z","epoch_age_seconds":163203,"freshness":"FRESH","line1":"1 63493U 25071A   26263.41390631  .00018448  00000+0  55555-3 0  9998","line2":"2 63493  53.1603 310.4550 0001026  82.6352 277.4767 15.34412811 82637","mean_motion":15.34412811,"eccentricity":0.0001026,"inclination_deg":53.1603,"raan_deg":310.455,"arg_perigee_deg":82.6352,"mean_anomaly_deg":277.4767,"bstar":0.00055555,"rev_number":8263,"period_min":93.846974534938,"perigee_km":461.96329717826,"apogee_km":463.36702978221,"semimajor_km":6840.8021634802,"source":"CELESTRAK","updated_at":"2026-09-21T09:00:35.012972Z"}}}